Regional Weather Roundup
Issued by NWS Kansas City/Pleasant Hill, MO

Home | Current Version | Previous Version | Graphics & Text | Print | Product List | Glossary Off
Versions: 1 2 3 4 5 6 7 8 9 10 11 12 13 14 15 16 17 18 19 20 21 22 23 24 25 26 27

000
ASUS43 KEAX 240610
RWREAX

WEATHER ROUNDUP FOR EASTERN KANSAS AND NORTHWEST MISSOURI
NATIONAL WEATHER SERVICE KANSAS CITY/PLEASANT HILL MO
1200 AM CST TUE JAN 24 2017

KSZ040-057-103>105-MOZ028-029-037-043-240700-
...KANSAS CITY METROPOLITAN AREA...

CITY           SKY/WX    TMP DP  RH WIND       PRES   REMARKS
K.C. INTL      CLEAR     31  28  89 E9        29.81F WCI  23
6HR MIN TEMP:  31; 6HR MAX TEMP:  38;

K.C. DOWNTOWN  CLEAR     32  30  92 E6        29.83F WCI  26
6HR MIN TEMP:  31; 6HR MAX TEMP:  38;

LEES SUMMIT    CLEAR     31  30  96 E8        29.82F FOG     WCI  23
6HR MIN TEMP:  30; 6HR MAX TEMP:  39;

OLATHE - IXD   CLEAR     33  31  92 E9        29.80F WCI  25
6HR MIN TEMP:  32; 6HR MAX TEMP:  38;

OLATHE - OJC   CLEAR     32  31  96 E8        29.80F WCI  25
6HR MIN TEMP:  32; 6HR MAX TEMP:  38;

LAWRENCE       CLEAR     30  29  96 E7        29.80F FOG     WCI  23

$$

MOZ001>008-011>017-020>025-030>033-038>040-044>046-053-054-240700-
...NORTHERN AND CENTRAL MISSOURI...

CITY           SKY/WX    TMP DP  RH WIND       PRES   REMARKS
ST. JOSEPH     CLEAR     30  29  96 E7        29.83F WCI  23
6HR MIN TEMP:  30; 6HR MAX TEMP:  36;

MOSBY          CLEAR     30  30 100 CALM      29.84F
WARRENSBURG    CLEAR     28  28 100 NE7       29.84F FOG     WCI  21
WHITEMAN AFB   CLEAR     29  29 100 E5        29.83F WCI  24
6HR MIN TEMP:  29; 6HR MAX TEMP:  37;

CLINTON        CLEAR     28  28 100 E6        29.84F FOG     WCI  22
SEDALIA        CLEAR     31  29  92 E5        29.86F WCI  26
6HR MIN TEMP:  30; 6HR MAX TEMP:  36;

WARSAW         NOT AVBL
CHILLICOTHE      N/A     27  25  92 CALM      29.87F
6HR MIN TEMP:  27; 6HR MAX TEMP:  35;

KIRKSVILLE     CLOUDY    32  29  88 N5        29.87S WCI  27
6HR MIN TEMP:  32; 6HR MAX TEMP:  33;


$$

MOZ041-047>049-056>058-063>065-088>090-097-240700-
...EASTERN AND SOUTHERN MISSOURI...

CITY           SKY/WX    TMP DP  RH WIND       PRES   REMARKS
ST. LOUIS INTL CLOUDY    41  31  67 NW7       29.89R
6HR MIN TEMP:  40; 6HR MAX TEMP:  43;

SPIRIT OF STL  CLOUDY    40  34  79 N5        29.88S
COLUMBIA       CLOUDY    34  30  85 NE7       29.86S WCI  28
JEFFERSON CITY CLEAR     29  28  96 SE3       29.87F
ROLLA          CLEAR     28  27  96 NE5       29.83F FOG     WCI  23
OSAGE BEACH    CLEAR     29  28  96 E3        29.87R FOG
SPRINGFIELD    CLEAR     35  30  82 SE7       29.81F WCI  29
BRANSON        CLEAR     39  32  75 SE6       29.84F WCI  35
JOPLIN         CLEAR     40  33  76 SE9       29.78F WCI  34
WEST PLAINS    CLEAR     30  27  88 CALM      29.86R

$$

IAZ060-094-KSZ022-034>040-054-083-096-NEZ052-066-093-240700-
...KANSAS...SOUTHEAST NEBRASKA AND IOWA...

CITY           SKY/WX    TMP DP  RH WIND       PRES   REMARKS
TOPEKA         CLEAR     32  29  88 E7        29.78F FOG     WCI  26
6HR MIN TEMP:  32; 6HR MAX TEMP:  37;

MANHATTAN      CLOUDY    35  32  88 E3        29.73F
EMPORIA        CLEAR     36  32  85 E9        29.73F WCI  29
CHANUTE        CLEAR     40  33  76 SE10      29.76F WCI  33
WICHITA        CLEAR     42  32  67 SE15      29.64F WCI  34
OMAHA          CLOUDY    31  26  82 E5        29.84F WCI  26
LINCOLN        CLOUDY    31  29  92 E7        29.80F WCI  24
FALLS CITY     CLEAR     30  28  92 E8        29.80F WCI  22
LAMONI         CLOUDY    31  28  89 CALM      29.84F
DES MOINES     CLOUDY    33  28  81 S3        29.87F

$$





USA.gov is the U.S. government's official web portal to all federal, state and local government web resources and services.